Overview Statistics Trail Chart Weather Telemetry Raw packets
 

This is the latest recevied weather packets stored in our database for station/object KQ4KX. If no packets are shown the sender has not sent any weather packets the latest 10 day(s).

<< 7 8 9 10 11 12 13 >>
Time Temp. Humidity Pressure Rain* Wind** Luminosity Snow
1788644465 30° C 79% 1012.9 hPa 0 mm - - -
1788644279 30° C 80% 1012.8 hPa 0 mm - - -
1788644166 30° C 80% 1012.8 hPa 0 mm - - -
1788644045 30° C 80% 1012.8 hPa 0 mm - - -
1788643866 30° C 80% 1012.8 hPa 0 mm - - -
1788643703 29.44° C 80% 1012.7 hPa 0 mm - - -
1788643535 29.44° C 80% 1012.7 hPa 0 mm - - -
1788642575 29.44° C 80% 1012.7 hPa 0 mm - - -
1788642245 29.44° C 78% 1012.5 hPa 0 mm - - -
1788641946 29.44° C 75% 1012.6 hPa 0 mm - - -
1788641315 30° C 74% 1012.7 hPa 0 mm - - -
1788640985 31.11° C 76% 1012.6 hPa 0 mm - - -
1788640655 31.11° C 72% 1012.6 hPa 0 mm - - -
1788640538 31.67° C 72% 1012.5 hPa 0 mm - - -
1788640356 31.67° C 72% 1012.5 hPa 0 mm - - -
1788640025 32.22° C 70% 1012.4 hPa 0 mm - - -
1788639725 33.33° C 71% 1012.3 hPa 0 mm - - -
1788639395 33.89° C 70% 1012.3 hPa 0 mm - - -
1788639065 33.89° C 66% 1012.4 hPa 0 mm - - -
1788638765 34.44° C 64% 1012.3 hPa 0 mm - - -
1788638638 34.44° C 64% 1012.4 hPa 0 mm - - -
1788638465 34.44° C 64% 1012.4 hPa 0 mm - - -
1788638135 34.44° C 65% 1012.5 hPa 0 mm - - -
1788637805 34.44° C 65% 1012.4 hPa 0 mm - - -
1788637475 34.44° C 66% 1012.5 hPa 0 mm - - -

* Rain latest hour (hover to see other rain measurements)
** Current wind speed in m/s (hover to see current wind gust speed)